Location: Central Falls
(41.8900°N, 71.3929°W)
Time: 04:41:55
(UTC+00:00)

Tiros 1 - Pass Details

Date: 14 December 2023
Orbit: 625 x 658 km, 48.4° (Epoch: 01 March)

Event Time Altitude Azimuth Distance (km) Brightness Sun altitude
Rises 13:07:56 0° 282° (WNW) 2,986 10.0 8.5°
Reaches altitude 10° 13:11:55 10° 250° (WSW) 2,066 9.5 9.1°
Maximum altitude 13:13:27 11° 230° (SW) 1,964 9.6 9.3°
Drops below altitude 10° 13:15:00 10° 211° (SSW) 2,059 9.9 9.5°
Sets 13:18:57 0° 179° (S) 2,958 11.3 10.0°
